HAZ9841 ZSPD-ZLLL

Flight info

Callsign HAZ9841
Flight time N/A
Altitude 38100
Route POMOK G330 UNTAN G345 OLRIS R343 HFE B208 TAMIX W4 LIMGI W152 SHX DCT ZS DCT OLMEK DCT DOVOP W541 OVKAB W94 XFG W213 OVTIB
Aircraft A339/H-SADE1E2E3GHIJ1J3J5M1P2RWXY/LB2D1

Departure

Time N/A
Airport Shanghai Pudong International Airport (ZSPD)

Arrival

Time 2026-04-27 16:58
Airport Lanzhou Zhongchuan International Airport (ZLLL)
Time Latitude Longitude Altitude Speed Heading
2026-04-27 16:09 35.15850 108.16491 38246 ft 399 kts 304°
2026-04-27 16:09 35.17691 108.13970 38232 ft 398 kts 304°
2026-04-27 16:10 35.25037 108.03907 38222 ft 399 kts 304°
2026-04-27 16:11 35.30562 107.96320 38216 ft 398 kts 305°
2026-04-27 16:12 35.36083 107.88721 38231 ft 398 kts 304°
2026-04-27 16:13 35.41615 107.81135 38239 ft 397 kts 304°
2026-04-27 16:13 35.47645 107.74046 38245 ft 408 kts 315°
2026-04-27 16:14 35.52492 107.70332 38255 ft 421 kts 323°
2026-04-27 16:14 35.58016 107.67594 38257 ft 435 kts 333°
2026-04-27 16:15 35.69809 107.63969 38252 ft 428 kts 327°
2026-04-27 16:16 35.74779 107.60352 38255 ft 406 kts 311°
2026-04-27 16:16 35.78558 107.55409 38251 ft 390 kts 298°
2026-04-27 16:17 35.81039 107.49621 38262 ft 380 kts 285°
2026-04-27 16:17 35.82566 107.43430 38260 ft 378 kts 282°
2026-04-27 16:18 35.85414 107.30976 38280 ft 379 kts 281°
2026-04-27 16:19 35.86816 107.24737 38284 ft 379 kts 281°
2026-04-27 16:20 35.89605 107.12219 38277 ft 379 kts 282°
2026-04-27 16:21 35.91585 107.02827 38281 ft 378 kts 280°
2026-04-27 16:22 35.94170 106.90231 38298 ft 380 kts 281°
2026-04-27 16:22 35.96103 106.80747 38294 ft 383 kts 281°
2026-04-27 16:23 35.98056 106.71147 38051 ft 385 kts 281°
2026-04-27 16:23 35.98705 106.67963 37565 ft 383 kts 280°
2026-04-27 16:24 35.99345 106.64782 37075 ft 379 kts 280°
2026-04-27 16:24 36.00619 106.58492 36137 ft 380 kts 281°
2026-04-27 16:25 36.01906 106.52118 35232 ft 385 kts 280°
2026-04-27 16:25 36.03202 106.45654 34332 ft 390 kts 280°
2026-04-27 16:26 36.04502 106.39139 33449 ft 394 kts 280°
2026-04-27 16:26 36.05812 106.32551 32674 ft 399 kts 279°
2026-04-27 16:27 36.07142 106.25872 31900 ft 406 kts 279°
2026-04-27 16:27 36.09288 106.15640 30734 ft 413 kts 282°
2026-04-27 16:28 36.10826 106.08818 29964 ft 417 kts 281°
2026-04-27 16:28 36.12380 106.01853 29195 ft 423 kts 282°
2026-04-27 16:29 36.14715 105.91283 28074 ft 422 kts 282°
2026-04-27 16:30 36.16248 105.84306 27335 ft 419 kts 282°
2026-04-27 16:30 36.17766 105.77389 26601 ft 417 kts 283°
2026-04-27 16:31 36.20017 105.67078 25497 ft 412 kts 283°
2026-04-27 16:31 36.21498 105.60262 24753 ft 408 kts 284°
2026-04-27 16:32 36.22967 105.53487 24032 ft 406 kts 284°
2026-04-27 16:32 36.23689 105.50145 23665 ft 404 kts 285°
2026-04-27 16:33 36.25130 105.43469 22951 ft 401 kts 285°
2026-04-27 16:33 36.25854 105.40111 22607 ft 401 kts 285°
2026-04-27 16:33 36.26570 105.36778 22260 ft 402 kts 285°
2026-04-27 16:33 36.27278 105.33476 21904 ft 401 kts 285°
2026-04-27 16:34 36.27993 105.30142 21545 ft 400 kts 285°
2026-04-27 16:34 36.28709 105.26791 21190 ft 400 kts 285°
2026-04-27 16:34 36.29419 105.23465 20830 ft 400 kts 285°
2026-04-27 16:34 36.30119 105.20184 20473 ft 399 kts 285°
2026-04-27 16:35 36.30840 105.16813 20109 ft 400 kts 286°
2026-04-27 16:35 36.31550 105.13507 19743 ft 400 kts 286°
2026-04-27 16:35 36.32957 105.06926 19013 ft 393 kts 287°
2026-04-27 16:36 36.33653 105.03669 18641 ft 388 kts 287°
2026-04-27 16:36 36.34335 105.00463 18269 ft 384 kts 287°
2026-04-27 16:36 36.35010 104.97287 17903 ft 380 kts 287°
2026-04-27 16:36 36.35688 104.94102 17538 ft 376 kts 287°
2026-04-27 16:37 36.36342 104.91017 17181 ft 373 kts 287°
2026-04-27 16:37 36.36998 104.87927 16818 ft 370 kts 287°
2026-04-27 16:37 36.37645 104.84866 16454 ft 367 kts 286°
2026-04-27 16:37 36.38292 104.81783 16086 ft 364 kts 287°
2026-04-27 16:38 36.38921 104.78801 15727 ft 361 kts 286°
2026-04-27 16:38 36.39551 104.75805 15361 ft 359 kts 287°
2026-04-27 16:38 36.40178 104.72814 14997 ft 357 kts 287°
2026-04-27 16:38 36.40807 104.69841 14624 ft 355 kts 286°
2026-04-27 16:39 36.41432 104.66881 14255 ft 353 kts 286°
2026-04-27 16:39 36.42047 104.63958 13889 ft 351 kts 286°
2026-04-27 16:39 36.42659 104.61031 13519 ft 350 kts 286°
2026-04-27 16:39 36.43269 104.58117 13147 ft 348 kts 286°
2026-04-27 16:40 36.43869 104.55242 12779 ft 347 kts 286°
2026-04-27 16:40 36.44474 104.52346 12405 ft 346 kts 286°
2026-04-27 16:40 36.45071 104.49478 12035 ft 345 kts 286°
2026-04-27 16:40 36.45666 104.46613 11672 ft 344 kts 286°
2026-04-27 16:41 36.46268 104.43714 11303 ft 343 kts 286°
2026-04-27 16:41 36.46860 104.40862 10941 ft 342 kts 286°
2026-04-27 16:41 36.47446 104.38026 10583 ft 341 kts 285°
2026-04-27 16:41 36.48030 104.35202 10224 ft 340 kts 285°
2026-04-27 16:42 36.48617 104.32362 9883 ft 338 kts 285°
2026-04-27 16:42 36.49197 104.29550 9785 ft 328 kts 285°
2026-04-27 16:42 36.49629 104.26830 9773 ft 315 kts 273°
2026-04-27 16:42 36.49457 104.24191 9780 ft 303 kts 256°
2026-04-27 16:43 36.48733 104.21815 9786 ft 291 kts 239°
2026-04-27 16:43 36.47571 104.19827 9789 ft 278 kts 224°
2026-04-27 16:43 36.46122 104.18318 9788 ft 265 kts 213°
2026-04-27 16:43 36.44630 104.17051 9784 ft 254 kts 211°
2026-04-27 16:44 36.43190 104.15859 9777 ft 243 kts 211°
2026-04-27 16:44 36.41804 104.14709 9781 ft 240 kts 212°
2026-04-27 16:44 36.40412 104.13539 9750 ft 241 kts 212°
2026-04-27 16:44 36.39038 104.12374 9634 ft 241 kts 212°
2026-04-27 16:45 36.37645 104.11186 9514 ft 241 kts 212°
2026-04-27 16:45 36.36265 104.10006 9395 ft 240 kts 212°
2026-04-27 16:45 36.34905 104.08843 9273 ft 238 kts 212°
2026-04-27 16:45 36.33545 104.07683 9150 ft 236 kts 212°
2026-04-27 16:46 36.32179 104.06512 9023 ft 236 kts 212°
2026-04-27 16:46 36.30831 104.05360 8898 ft 237 kts 212°
2026-04-27 16:46 36.29476 104.04202 8793 ft 235 kts 213°
2026-04-27 16:46 36.28121 104.03044 8786 ft 236 kts 212°
2026-04-27 16:47 36.26773 104.01894 8782 ft 236 kts 212°
2026-04-27 16:47 36.25489 104.00598 8774 ft 238 kts 227°
2026-04-27 16:47 36.24553 103.98910 8782 ft 241 kts 244°
2026-04-27 16:47 36.24048 103.96952 8788 ft 240 kts 262°
2026-04-27 16:48 36.23921 103.94878 8794 ft 241 kts 268°
2026-04-27 16:48 36.23883 103.92802 8793 ft 241 kts 269°
2026-04-27 16:48 36.23846 103.90746 8791 ft 240 kts 268°
2026-04-27 16:49 36.23733 103.86609 8795 ft 240 kts 268°
2026-04-27 16:49 36.23668 103.84566 8790 ft 239 kts 267°
2026-04-27 16:49 36.23598 103.82488 8787 ft 239 kts 268°
2026-04-27 16:49 36.23526 103.80436 8784 ft 238 kts 268°
2026-04-27 16:50 36.23447 103.78415 8785 ft 235 kts 267°
2026-04-27 16:50 36.23352 103.76427 8769 ft 224 kts 267°
2026-04-27 16:50 36.23262 103.74557 8773 ft 214 kts 267°
2026-04-27 16:50 36.23173 103.72713 8801 ft 215 kts 267°
2026-04-27 16:51 36.23085 103.70876 8796 ft 214 kts 267°
2026-04-27 16:51 36.23124 103.69021 8785 ft 215 kts 285°
2026-04-27 16:51 36.23791 103.67417 8786 ft 211 kts 317°
2026-04-27 16:51 36.25017 103.66492 8794 ft 205 kts 344°
2026-04-27 16:52 36.26369 103.66158 8784 ft 190 kts 357°
2026-04-27 16:52 36.27649 103.66054 8774 ft 175 kts
2026-04-27 16:52 36.28832 103.66001 8775 ft 168 kts
2026-04-27 16:52 36.29988 103.65949 8775 ft 163 kts
2026-04-27 16:53 36.31119 103.65891 8786 ft 163 kts
2026-04-27 16:53 36.32267 103.65826 8790 ft 163 kts
2026-04-27 16:53 36.33392 103.65756 8791 ft 162 kts
2026-04-27 16:53 36.34517 103.65682 8793 ft 162 kts
2026-04-27 16:54 36.35658 103.65606 8791 ft 162 kts 360°
2026-04-27 16:54 36.36785 103.65530 8793 ft 161 kts
2026-04-27 16:54 36.37908 103.65456 8751 ft 162 kts 359°
2026-04-27 16:54 36.39029 103.65382 8548 ft 160 kts 359°
2026-04-27 16:55 36.40138 103.65308 8340 ft 159 kts 359°
2026-04-27 16:55 36.41243 103.65237 8133 ft 158 kts 359°
2026-04-27 16:55 36.42343 103.65165 7933 ft 158 kts 358°
2026-04-27 16:55 36.43440 103.65093 7733 ft 157 kts 358°
2026-04-27 16:56 36.44517 103.65024 7531 ft 156 kts 358°
2026-04-27 16:56 36.45612 103.64954 7326 ft 156 kts 358°
2026-04-27 16:56 36.46685 103.64886 7124 ft 155 kts 358°
2026-04-27 16:56 36.47763 103.64824 6914 ft 154 kts 357°
2026-04-27 16:57 36.48823 103.64758 6711 ft 154 kts 357°
2026-04-27 16:57 36.49891 103.64687 6517 ft 152 kts 356°
2026-04-27 16:57 36.50938 103.64610 6410 ft 142 kts 356°
2026-04-27 16:57 36.51647 103.64565 6411 ft 58 kts 357°
2026-04-27 16:58 36.51809 103.64555 6411 ft 12 kts 357°
2026-04-27 16:58 36.51908 103.64548 6411 ft 14 kts 357°
2026-04-27 16:58 36.52007 103.64535 6411 ft 14 kts 350°
2026-04-27 16:58 36.52102 103.64497 6411 ft 14 kts 337°
2026-04-27 16:59 36.52193 103.64440 6411 ft 14 kts 331°
2026-04-27 16:59 36.52243 103.64346 6411 ft 12 kts 276°
2026-04-27 16:59 36.52251 103.64234 6411 ft 13 kts 271°
2026-04-27 16:59 36.52252 103.64126 6411 ft 10 kts 263°
2026-04-27 17:00 36.52176 103.64020 6411 ft 9 kts 219°
2026-04-27 17:00 36.52150 103.63994 6411 ft 0 kts 219°
2026-04-27 17:01 36.52148 103.63992 6411 ft 1 kts 219°
2026-04-27 17:02 36.52144 103.63988 6411 ft 0 kts 219°